Simultaneous Nadir Overpasses (SNOs) Predictions

Prediction of SNOs between METOP-B and NOAA-19 Satellite Orbit:

Table of predicted SNOs for the next 14.0 days since TLE Epoch: 3/13/2021
Index Date (METOP-B) Time (METOP-B) Lat,Lon (METOP-B) SZA (METOP-B ) Date (NOAA-19) Time (NOAA-19) Lat,Lon (NOAA-19) SZA (NOAA-19 ) Distance(km) Time Diff (sec)
1 03/14/2021 09:34:23 -80.44,-116.55 96.37 03/14/2021 09:33:17 -80.43,-116.50 96.39 1.31 66
2 03/14/2021 10:25:03 80.44, 50.87 83.64 03/14/2021 10:24:13 80.42, 50.90 83.61 2.38 50
3 03/14/2021 11:15:45 -80.42,-142.04 96.42 03/14/2021 11:15:18 -80.44,-142.19 96.42 3.24 27
4 03/14/2021 12:06:25 80.43, 25.38 83.59 03/14/2021 12:06:14 80.43, 25.20 83.57 3.28 11
5 03/14/2021 12:57:07 -80.41,-167.52 96.46 03/14/2021 12:57:18 -80.43,-167.55 96.45 2.07 11
6 03/14/2021 13:47:47 80.42, -0.10 83.54 03/14/2021 13:48:14 80.43, -0.16 83.55 1.12 27
7 03/14/2021 14:38:29 -80.40, 166.99 96.51 03/14/2021 14:39:18 -80.42, 167.10 96.47 3.12 49
8 03/14/2021 15:29:09 80.41, -25.59 83.49 03/14/2021 15:30:14 80.42, -25.51 83.53 1.72 65
9 03/25/2021 11:38:21 80.45, 32.67 79.36 03/25/2021 11:37:13 80.45, 32.61 79.33 1.31 68
10 03/25/2021 12:29:02 -80.46,-159.93 100.65 03/25/2021 12:28:18 -80.44,-159.98 100.68 2.49 44
11 03/25/2021 13:19:43 80.44, 7.18 79.31 03/25/2021 13:19:13 80.44, 7.25 79.31 1.33 30
12 03/25/2021 14:10:24 -80.45, 174.58 100.70 03/25/2021 14:10:18 -80.43, 174.66 100.71 2.38 6
13 03/25/2021 15:01:05 80.43, -18.30 79.27 03/25/2021 15:01:14 80.45, -18.45 79.28 3.39 9
14 03/25/2021 15:51:46 -80.44, 149.09 100.74 03/25/2021 15:52:19 -80.44, 148.96 100.74 2.49 33
15 03/25/2021 16:42:26 80.44, -43.46 79.26 03/25/2021 16:43:13 80.43, -43.47 79.26 2.12 47



Historial Predications of SNOs between METOP-B and NOAA-19
